Preview of NWS' New Version of Forecast
This preview is not operational and should not be used for support decisions.

Regional Weather Roundup (RWR)

Issued by National Weather Service (NWS)

                            
000
ASUS44 KMEG 261210
RWRTN 
TENNESSEE HOURLY STATE WEATHER ROUNDUP
NATIONAL WEATHER SERVICE MEMPHIS TN
700 AM CDT TUE MAR 26 2019

TNZ002-004-019-021-049-052-054-088>092-261300-
WEST TENNESSEE
  
CITY           SKY/WX    TMP DP  RH WIND       PRES   REMARKS
MEMPHIS INTL   FAIR      46  40  79 N9        30.28R                  
NWS MEMPHIS      N/A     44 N/A N/A MISG        N/A                   
JACKSON        FAIR      43  38  82 NE9       30.28R                  
DYERSBURG      FAIR      44  39  82 N6        30.31R                  
SOMERVILLE     CLEAR     45  39  81 N6        30.26R                  
COVINGTON      MOCLDY    43  39  87 N8        30.29R                  
UNION CITY     CLEAR     39  37  93 N7        30.29R WCI  34          
BOLIVAR        CLEAR     45  39  81 VRB6G12   30.25R                  
PARIS          PTCLDY    39  32  75 NE12      30.28S WCI  32          
HUNTINGDON     PTCLDY    41  37  87 NE10      30.27S                  
LEXINGTON      PTCLDY    43  36  75 N10       30.26R                  
SELMER         CLOUDY    46  37  71 N12       30.23R                  
SAVANNAH       CLOUDY    48  39  71 N8        30.23S                  
$$

TNZ008-025-027-028-033-062-065-066-261300-
NORTH MIDDLE TENNESSEE
  
CITY           SKY/WX    TMP DP  RH WIND       PRES   REMARKS
NASHVILLE      FAIR      39  28  64 N12       30.25R WCI  32          
DICKSON        SUNNY     37  34  87 NE8       30.25R WCI  31          
CLARKSVILLE    FAIR      35  26  69 CALM      30.30R                  
LEBANON        SUNNY     37  28  70 N5        30.24R WCI  34          
SMYRNA         FAIR      39  30  70 N12       30.26R WCI  32          
MURFREESBORO   MOSUNNY   39  32  75 N9        30.23R WCI  33          
COOKEVILLE     CLOUDY    41  36  81 VRB5G13   30.20R                  
LIVINGSTON     MOSUNNY   34  27  75 NE7       30.20R WCI  28          
GALLATIN       SUNNY     37  25  60 N9G15     30.29R WCI  31          
CROSSVILLE     CLOUDY    39  35  86 N9        30.16S WCI  33          
ROCKWOOD       CLOUDY    41  37  87 N10G17    30.15R                  
$$

TNZ061-075-076-078-094-096-097-261300-
SOUTH MIDDLE TENNESSEE
  
CITY           SKY/WX    TMP DP  RH WIND       PRES   REMARKS
LAWRENCEBURG   CLOUDY    43  36  75 N10       30.21R                  
LEWISBURG      PTSUNNY   41  36  81 N9G16     30.22R                  
FAYETTEVILLE   CLOUDY    45  39  81 N10G16    30.18S                  
TULLAHOMA      CLOUDY    43  37  81 N9        30.19R                  
WINCHESTER     CLOUDY    45  39  81 N13       30.18R                  
MCMINNVILLE    CLOUDY    43  37  81 NE9       30.20R                  
COLUMBIA       CLEAR     41  37  87 N3        30.23R                  
SHELBYVILLE    CLOUDY    43  37  81 N12       30.21R                  
$$

TNZ017-018-042-046-047-261300-
NORTHEAST TENNESSEE
  
CITY           SKY/WX    TMP DP  RH WIND       PRES   REMARKS
TRI CITIES     CLOUDY    44  39  82 N8        30.13R                  
ELIZABETHTON   CLOUDY    45  41  87 N6G12     30.11R                  
GREENEVILLE    CLOUDY    45  41  87 N7        30.12R                  
$$

TNZ012-013-036-069-073-074-261300-
CENTRAL EAST TENNESSEE
  
CITY           SKY/WX    TMP DP  RH WIND       PRES   REMARKS
KNOXVILLE      CLOUDY    44  39  82 N8        30.15R                  
OAK RIDGE      CLOUDY    45  36  70 VRB6      30.18R                  
DOWNTOWN KNOXV CLOUDY    46  41  81 CALM      30.16R                  
GATLINBURG     CLOUDY    46  43  87 NW6       30.14R                  
MORRISTOWN     CLOUDY    45  41  87 N12       30.13R                  
JACKSBORO      CLOUDY    43  37  81 N7        30.21R                  
$$

TNZ083-085-099-261300-
SOUTHEAST TENNESSEE
  
CITY           SKY/WX    TMP DP  RH WIND       PRES   REMARKS
CHATTANOOGA    CLOUDY    48  40  73 N13       30.15S                  
DAYTON         CLOUDY    46  41  81 N9        30.16S                  
$$

SKY/WX REPORTED AS FAIR MEANS FEW OR NO CLOUDS BELOW
12 THOUSAND FEET.